Theta_e
337 338 338 338 339 339 339 339 339 338 338 338 337 336 336 334 331 330 329 330 332 331 325 322 322 320 318 317 320 323 326 330
336 337 338 338 337 337 337 337 337 337 337 337 337 336 335 335 335 333 330 330 329 330 331 328 324 322 321 318 318 321 322 327
344 343 342 341 337 337 337 337 337 337 337 337 336 335 334 334 336 336 335 332 330 330 330 330 330 326 323 321 318 318 319 320
338 336 334 336 337 336 336 337 337 337 337 336 335 334 334 334 336 337 337 336 333 331 331 331 330 331 328 324 321 319 318 319
342 343 342 340 340 339 338 337 337 337 337 338 340 342 341 341 338 334 336 338 337 335 333 332 332 332 331 331 326 322 320 319
343 342 341 341 341 341 340 339 340 340 340 341 340 340 338 340 340 341 339 335 334 334 336 337 336 335 334 333 332 329 324 321
339 339 338 338 338 340 340 340 338 339 339 340 339 338 338 340 338 337 338 338 339 338 339 339 338 337 337 337 336 334 332 328
330 331 332 334 335 339 340 340 340 340 340 340 339 339 338 337 336 338 338 337 338 337 337 336 336 337 337 337 337 336 334 333
321 321 322 323 327 334 338 338 337 337 337 338 337 336 336 332 333 333 334 335 334 334 335 336 335 335 335 335 335 335 335 335
318 317 317 318 321 326 326 325 323 324 322 322 324 325 324 322 325 324 326 325 320 321 322 323 332 334 335 335 334 335 334 334
313 312 311 311 310 311 310 310 309 309 309 309 309 309 308 308 308 308 308 308 308 308 309 310 313 318 325 331 333 334 332 332
310 309 308 307 307 308 308 309 309 309 308 308 308 307 306 305 305 304 303 304 304 304 304 304 306 308 310 313 318 325 331 334
308 308 309 308 309 309 309 308 305 303 302 301 300 300 300 300 300 300 299 299 299 299 299 300 301 303 307 307 308 309 315 320
309 309 309 309 309 308 306 302 300 300 299 299 299 299 298 298 297 297 297 297 297 297 297 299 301 303 307 311 311 310 309 315
308 308 308 307 305 302 300 299 299 299 299 298 297 297 297 298 298 298 297 297 296 297 298 300 308 308 309 310 312 312 312 312
306 306 307 305 303 300 300 299 299 298 297 297 296 299 302 302 301 301 300 299 299 299 300 301 306 308 308 309 309 310 312 312
307 308 312 306 302 300 299 299 299 298 297 295 296 300 302 302 302 302 302 303 303 302 302 302 303 305 305 305 306 306 305 308
311 308 306 304 300 300 300 299 299 299 298 295 297 301 302 302 301 301 302 302 302 303 304 304 303 303 302 302 302 301 301 302
307 309 305 302 300 300 299 299 299 299 298 295 298 302 301 301 301 300 300 299 299 299 299 299 299 299 299 300 301 301 301 301
307 306 303 301 300 300 299 299 299 299 298 296 300 301 301 301 300 300 299 299 299 299 299 299 299 299 299 299 300 300 300 301
Wind_Speed
9 10 11 13 14 15 14 14 14 13 13 13 14 14 15 15 15 14 13 12 11 11 10 9 9 9 12 14 14 15 13 12
12 10 10 11 13 14 14 14 13 13 14 14 15 16 16 18 18 18 17 16 16 15 14 13 11 12 13 15 17 19 18 17
10 9 9 10 14 14 13 13 12 12 13 13 14 15 17 18 20 21 21 20 20 20 19 17 16 15 16 17 20 22 22 22
14 12 10 9 11 13 12 12 11 11 11 11 11 11 13 16 18 21 22 23 23 24 23 22 22 21 20 20 22 24 26 26
16 15 14 12 11 10 11 11 10 11 11 10 6 6 8 11 14 18 21 22 24 25 26 27 27 27 26 26 25 26 28 30
10 10 11 13 14 15 14 13 13 13 10 8 10 8 11 13 14 14 15 19 22 24 26 28 30 31 31 32 30 30 31 33
8 8 10 10 9 10 11 14 14 12 11 14 15 16 13 14 16 17 18 18 13 18 19 23 28 30 33 36 36 35 35 35
9 8 6 5 6 6 6 6 6 9 12 15 15 13 14 14 18 19 22 21 24 23 23 22 26 26 26 29 35 38 39 39
8 7 6 5 5 6 7 5 5 6 7 7 12 13 18 13 22 20 22 24 24 26 28 28 28 30 30 31 33 35 34 34
9 8 8 8 8 7 7 5 3 2 3 6 10 13 14 16 19 22 24 23 22 22 21 21 22 19 21 31 37 35 36 38
10 10 9 9 10 8 7 5 3 3 4 7 10 13 15 17 19 21 22 22 22 23 22 22 23 24 27 26 23 35 40 38
9 10 9 8 8 7 3 1 3 7 10 13 16 19 21 23 25 25 26 26 26 26 26 25 24 26 29 30 32 30 31 36
9 7 7 5 4 2 5 10 13 14 16 19 21 23 25 26 27 28 28 27 25 23 26 27 27 26 29 34 35 33 33 34
9 6 4 4 8 11 13 13 15 17 19 21 24 25 26 25 25 24 23 23 20 19 19 22 23 23 24 27 21 30 28 21
4 2 5 10 15 15 14 14 17 20 23 27 30 29 28 24 21 20 18 18 16 14 15 15 16 17 15 15 13 10 29 32
1 4 11 15 18 15 15 18 21 25 27 29 28 29 27 23 19 15 12 10 10 11 11 12 12 14 15 15 17 22 23 30
5 9 15 20 18 16 17 20 22 25 27 25 26 26 23 19 15 11 8 8 9 10 11 12 13 15 17 20 23 27 30 30
11 9 12 14 15 15 17 21 25 26 27 24 25 24 21 17 13 11 10 9 9 10 9 9 11 14 17 20 21 23 29 32
6 10 14 15 15 16 18 22 25 27 26 22 21 20 20 15 13 12 13 12 12 13 13 14 14 15 18 19 21 25 28 29
10 14 16 18 16 16 19 23 25 27 24 20 18 17 18 19 15 14 13 14 14 15 16 17 18 19 20 22 24 25 26 25
Wind_Direction
179 189 202 210 215 218 221 226 230 235 239 241 241 241 242 242 242 243 247 251 254 257 255 245 231 233 241 248 249 251 244 244
172 189 208 216 221 226 230 235 241 246 249 252 255 254 251 251 250 248 249 251 254 257 259 257 248 239 239 245 248 252 253 249
171 180 199 216 225 227 232 239 247 253 259 264 267 270 268 261 256 254 253 252 255 258 258 260 257 249 242 240 244 249 253 255
186 192 198 203 208 214 222 235 244 249 253 257 258 265 274 275 270 265 262 261 259 260 261 262 261 258 253 245 244 248 250 254
204 206 207 206 212 207 209 216 222 227 233 231 248 274 302 302 286 272 270 270 268 267 267 267 266 265 262 257 252 250 252 251
209 223 237 237 231 224 223 227 232 239 253 265 279 270 281 285 295 296 286 276 273 272 274 274 272 270 268 266 262 257 255 255
193 206 227 243 246 248 232 236 243 248 249 267 272 272 277 283 284 283 282 286 291 288 288 279 274 273 272 272 269 261 258 256
181 192 207 233 249 245 226 211 226 240 253 253 258 260 272 277 279 277 278 281 279 274 278 283 283 281 287 281 277 274 255 254
168 161 168 202 206 178 166 169 177 209 212 238 259 262 266 271 279 274 271 272 273 273 273 272 276 278 277 280 281 283 283 270
156 149 151 143 143 150 166 174 199 228 261 277 271 272 275 280 277 277 279 279 283 283 283 279 267 265 281 284 276 278 278 277
153 145 140 132 124 112 97 77 31 347 313 295 293 292 289 285 282 281 281 282 283 285 286 290 287 278 274 264 275 279 274 278
148 145 133 120 104 100 95 23 312 312 306 299 296 296 295 295 293 291 289 287 287 288 288 285 286 286 282 281 279 274 279 282
144 138 128 111 116 63 343 336 335 329 326 321 317 311 307 304 300 296 294 294 298 300 299 298 294 294 293 285 280 280 278 281
153 151 113 34 357 349 344 338 335 333 328 324 320 315 312 309 304 298 296 296 302 305 306 308 309 307 308 312 311 294 285 280
147 102 27 359 352 349 343 340 339 338 335 335 337 334 330 323 310 300 295 296 299 305 305 302 311 311 317 315 313 291 301 290
166 355 358 350 343 337 341 344 342 343 340 340 342 341 340 338 329 320 315 304 299 300 293 284 286 304 306 297 299 302 305 300
295 314 331 335 327 331 341 342 341 340 339 339 338 340 341 346 357 3 346 338 328 311 305 299 294 297 300 299 292 293 299 296
233 287 312 315 317 331 339 339 337 336 334 332 335 338 341 342 4 1 8 354 340 337 326 310 301 294 295 292 294 298 298 299
240 307 307 309 318 325 328 330 329 330 330 325 329 330 343 339 338 344 345 348 344 339 336 325 317 308 300 300 291 285 291 292
269 291 296 308 307 315 323 326 327 329 326 320 318 319 324 330 333 335 335 332 328 326 321 318 314 310 307 303 299 293 289 289